Year,Month,Day,Hour,Minute,Value (Times are PST for temperature in C)
2015,02,15,00,00,5.30
2015,02,15,00,01,5.30
2015,02,15,00,02,5.30
2015,02,15,00,03,5.40
2015,02,15,00,04,5.40
2015,02,15,00,05,5.40
2015,02,15,00,06,5.50
2015,02,15,00,07,5.50
2015,02,15,00,08,5.60
2015,02,15,00,09,5.60
2015,02,15,00,10,5.60
2015,02,15,00,11,5.70
2015,02,15,00,12,5.70
2015,02,15,00,13,5.70
2015,02,15,00,14,5.70
2015,02,15,00,15,5.70
2015,02,15,00,16,5.70
2015,02,15,00,17,5.70
2015,02,15,00,18,5.70
2015,02,15,00,19,5.70
2015,02,15,00,20,5.70
2015,02,15,00,21,5.80
2015,02,15,00,22,5.80
2015,02,15,00,23,5.80
2015,02,15,00,24,5.80
2015,02,15,00,25,5.80
2015,02,15,00,26,5.80
2015,02,15,00,27,5.80
2015,02,15,00,28,5.70
2015,02,15,00,29,5.70
2015,02,15,00,30,5.60
2015,02,15,00,31,5.60
2015,02,15,00,32,5.50
2015,02,15,00,33,5.50
2015,02,15,00,34,5.40
2015,02,15,00,35,5.40
2015,02,15,00,36,5.40
2015,02,15,00,37,5.30
2015,02,15,00,38,5.30
2015,02,15,00,39,5.30
2015,02,15,00,40,5.30
2015,02,15,00,41,5.30
2015,02,15,00,42,5.30
2015,02,15,00,43,5.30
2015,02,15,00,44,5.30
2015,02,15,00,45,5.30
2015,02,15,00,46,5.30
2015,02,15,00,47,5.30
2015,02,15,00,48,5.40
2015,02,15,00,49,5.40
2015,02,15,00,50,5.40
2015,02,15,00,51,5.40
2015,02,15,00,52,5.40
2015,02,15,00,53,5.40
2015,02,15,00,54,5.30
2015,02,15,00,55,5.30
2015,02,15,00,56,5.30
2015,02,15,00,57,5.20
2015,02,15,00,58,5.20
2015,02,15,00,59,5.20
2015,02,15,01,00,5.10
2015,02,15,01,01,5.10
2015,02,15,01,02,5.10
2015,02,15,01,03,5.10
2015,02,15,01,04,5.10
2015,02,15,01,05,5.00
2015,02,15,01,06,5.00
2015,02,15,01,07,5.00
2015,02,15,01,08,5.00
2015,02,15,01,09,5.00
2015,02,15,01,10,4.90
2015,02,15,01,11,4.90
2015,02,15,01,12,4.90
2015,02,15,01,13,4.90
2015,02,15,01,14,4.90
2015,02,15,01,15,4.90
2015,02,15,01,16,5.00
2015,02,15,01,17,5.00
2015,02,15,01,18,5.00
2015,02,15,01,19,5.10
2015,02,15,01,20,5.10
2015,02,15,01,21,5.10
2015,02,15,01,22,5.10
2015,02,15,01,23,5.10
2015,02,15,01,24,5.10
2015,02,15,01,25,5.10
2015,02,15,01,26,5.10
2015,02,15,01,27,5.10
2015,02,15,01,28,5.10
2015,02,15,01,29,5.20
2015,02,15,01,30,5.20
2015,02,15,01,31,5.20
2015,02,15,01,32,5.20
2015,02,15,01,33,5.20
2015,02,15,01,34,5.20
2015,02,15,01,35,5.20
2015,02,15,01,36,5.20
2015,02,15,01,37,5.20
2015,02,15,01,38,5.20
2015,02,15,01,39,5.30
2015,02,15,01,40,5.30
2015,02,15,01,41,5.30
2015,02,15,01,42,5.30
2015,02,15,01,43,5.30
2015,02,15,01,44,5.20
2015,02,15,01,45,5.20
2015,02,15,01,46,5.20
2015,02,15,01,47,5.20
2015,02,15,01,48,5.20
2015,02,15,01,49,5.20
2015,02,15,01,50,5.20
2015,02,15,01,51,5.20
2015,02,15,01,52,5.20
2015,02,15,01,53,5.20
2015,02,15,01,54,5.10
2015,02,15,01,55,5.10
2015,02,15,01,56,5.10
2015,02,15,01,57,5.10
2015,02,15,01,58,5.10
2015,02,15,01,59,5.00
2015,02,15,02,00,5.00
2015,02,15,02,01,5.00
2015,02,15,02,02,4.90
2015,02,15,02,03,4.90
2015,02,15,02,04,4.90
2015,02,15,02,05,4.90
2015,02,15,02,06,4.90
2015,02,15,02,07,4.90
2015,02,15,02,08,4.90
2015,02,15,02,09,4.90
2015,02,15,02,10,4.90
2015,02,15,02,11,4.90
2015,02,15,02,12,4.90
2015,02,15,02,13,4.90
2015,02,15,02,14,5.00
2015,02,15,02,15,5.00
2015,02,15,02,16,5.10
2015,02,15,02,17,5.10
2015,02,15,02,18,5.10
2015,02,15,02,19,5.10
2015,02,15,02,20,5.10
2015,02,15,02,21,5.10
2015,02,15,02,22,5.10
2015,02,15,02,23,5.10
2015,02,15,02,24,5.20
2015,02,15,02,25,5.20
2015,02,15,02,26,5.20
2015,02,15,02,27,5.30
2015,02,15,02,28,5.30
2015,02,15,02,29,5.30
2015,02,15,02,30,5.30
2015,02,15,02,31,5.30
2015,02,15,02,32,5.40
2015,02,15,02,33,5.40
2015,02,15,02,34,5.40
2015,02,15,02,35,5.40
2015,02,15,02,36,5.40
2015,02,15,02,37,5.40
2015,02,15,02,38,5.40
2015,02,15,02,39,5.40
2015,02,15,02,40,5.50
2015,02,15,02,41,5.50
2015,02,15,02,42,5.50
2015,02,15,02,43,5.60
2015,02,15,02,44,5.60
2015,02,15,02,45,5.60
2015,02,15,02,46,5.60
2015,02,15,02,47,5.60
2015,02,15,02,48,5.60
2015,02,15,02,49,5.60
2015,02,15,02,50,5.60
2015,02,15,02,51,5.60
2015,02,15,02,52,5.60
2015,02,15,02,53,5.50
2015,02,15,02,54,5.50
2015,02,15,02,55,5.40
2015,02,15,02,56,5.40
2015,02,15,02,57,5.30
2015,02,15,02,58,5.30
2015,02,15,02,59,5.30
2015,02,15,03,00,5.30
2015,02,15,03,01,5.20
2015,02,15,03,02,5.20
2015,02,15,03,03,5.20
2015,02,15,03,04,5.20
2015,02,15,03,05,5.20
2015,02,15,03,06,5.20
2015,02,15,03,07,5.20
2015,02,15,03,08,5.20
2015,02,15,03,09,5.20
2015,02,15,03,10,5.10
2015,02,15,03,11,5.10
2015,02,15,03,12,5.10
2015,02,15,03,13,5.10
2015,02,15,03,14,5.10
2015,02,15,03,15,5.00
2015,02,15,03,16,5.00
2015,02,15,03,17,4.90
2015,02,15,03,18,4.90
2015,02,15,03,19,4.80
2015,02,15,03,20,4.80
2015,02,15,03,21,4.80
2015,02,15,03,22,4.80
2015,02,15,03,23,4.80
2015,02,15,03,24,4.70
2015,02,15,03,25,4.70
2015,02,15,03,26,4.70
2015,02,15,03,27,4.70
2015,02,15,03,28,4.60
2015,02,15,03,29,4.60
2015,02,15,03,30,4.60
2015,02,15,03,31,4.50
2015,02,15,03,32,4.50
2015,02,15,03,33,4.50
2015,02,15,03,34,4.40
2015,02,15,03,35,4.40
2015,02,15,03,36,4.40
2015,02,15,03,37,4.40
2015,02,15,03,38,4.40
2015,02,15,03,39,4.40
2015,02,15,03,40,4.40
2015,02,15,03,41,4.40
2015,02,15,03,42,4.40
2015,02,15,03,43,4.50
2015,02,15,03,44,4.50
2015,02,15,03,45,4.50
2015,02,15,03,46,4.50
2015,02,15,03,47,4.50
2015,02,15,03,48,4.60
2015,02,15,03,49,4.60
2015,02,15,03,50,4.70
2015,02,15,03,51,4.70
2015,02,15,03,52,4.70
2015,02,15,03,53,4.80
2015,02,15,03,54,4.80
2015,02,15,03,55,4.80
2015,02,15,03,56,4.80
2015,02,15,03,57,4.80
2015,02,15,03,58,4.80
2015,02,15,03,59,4.80
2015,02,15,04,00,4.80
2015,02,15,04,01,4.70
2015,02,15,04,02,4.70
2015,02,15,04,03,4.50
2015,02,15,04,04,4.40
2015,02,15,04,05,4.30
2015,02,15,04,06,4.30
2015,02,15,04,07,4.30
2015,02,15,04,08,4.30
2015,02,15,04,09,4.30
2015,02,15,04,10,4.40
2015,02,15,04,11,4.40
2015,02,15,04,12,4.40
2015,02,15,04,13,4.50
2015,02,15,04,14,4.50
2015,02,15,04,15,4.50
2015,02,15,04,16,4.50
2015,02,15,04,17,4.60
2015,02,15,04,18,4.70
2015,02,15,04,19,4.70
2015,02,15,04,20,4.60
2015,02,15,04,21,4.60
2015,02,15,04,22,4.60
2015,02,15,04,23,4.60
2015,02,15,04,24,4.60
2015,02,15,04,25,4.60
2015,02,15,04,26,4.50
2015,02,15,04,27,4.50
2015,02,15,04,28,4.40
2015,02,15,04,29,4.30
2015,02,15,04,30,4.30
2015,02,15,04,31,4.20
2015,02,15,04,32,4.20
2015,02,15,04,33,4.20
2015,02,15,04,34,4.20
2015,02,15,04,35,4.20
2015,02,15,04,36,4.20
2015,02,15,04,37,4.20
2015,02,15,04,38,4.30
2015,02,15,04,39,4.30
2015,02,15,04,40,4.30
2015,02,15,04,41,4.40
2015,02,15,04,42,4.40
2015,02,15,04,43,4.40
2015,02,15,04,44,4.40
2015,02,15,04,45,4.40
2015,02,15,04,46,4.40
2015,02,15,04,47,4.40
2015,02,15,04,48,4.30
2015,02,15,04,49,4.30
2015,02,15,04,50,4.30
2015,02,15,04,51,4.30
2015,02,15,04,52,4.30
2015,02,15,04,53,4.30
2015,02,15,04,54,4.20
2015,02,15,04,55,4.20
2015,02,15,04,56,4.20
2015,02,15,04,57,4.10
2015,02,15,04,58,4.10
2015,02,15,04,59,4.10
2015,02,15,05,00,4.10
2015,02,15,05,01,4.10
2015,02,15,05,02,4.10
2015,02,15,05,03,4.10
2015,02,15,05,04,4.10
2015,02,15,05,05,4.20
2015,02,15,05,06,4.20
2015,02,15,05,07,4.20
2015,02,15,05,08,4.20
2015,02,15,05,09,4.20
2015,02,15,05,10,4.30
2015,02,15,05,11,4.30
2015,02,15,05,12,4.30
2015,02,15,05,13,4.30
2015,02,15,05,14,4.40
2015,02,15,05,15,4.40
2015,02,15,05,16,4.50
2015,02,15,05,17,4.50
2015,02,15,05,18,4.50
2015,02,15,05,19,4.60
2015,02,15,05,20,4.60
2015,02,15,05,21,4.60
2015,02,15,05,22,4.60
2015,02,15,05,23,4.60
2015,02,15,05,24,4.60
2015,02,15,05,25,4.60
2015,02,15,05,26,4.60
2015,02,15,05,27,4.60
2015,02,15,05,28,4.70
2015,02,15,05,29,4.70
2015,02,15,05,30,4.70
2015,02,15,05,31,4.70
2015,02,15,05,32,4.70
2015,02,15,05,33,4.70
2015,02,15,05,34,4.70
2015,02,15,05,35,4.60
2015,02,15,05,36,4.50
2015,02,15,05,37,4.40
2015,02,15,05,38,4.30
2015,02,15,05,39,4.20
2015,02,15,05,40,4.20
2015,02,15,05,41,4.10
2015,02,15,05,42,4.00
2015,02,15,05,43,4.00
2015,02,15,05,44,3.90
2015,02,15,05,45,3.90
2015,02,15,05,46,3.90
2015,02,15,05,47,3.80
2015,02,15,05,48,3.80
2015,02,15,05,49,3.80
2015,02,15,05,50,3.80
2015,02,15,05,51,3.80
2015,02,15,05,52,3.80
2015,02,15,05,53,3.80
2015,02,15,05,54,3.70
2015,02,15,05,55,3.70
2015,02,15,05,56,3.70
2015,02,15,05,57,3.70
2015,02,15,05,58,3.70
2015,02,15,05,59,3.70
2015,02,15,06,00,3.70
2015,02,15,06,01,3.60
2015,02,15,06,02,3.60
2015,02,15,06,03,3.60
2015,02,15,06,04,3.60
2015,02,15,06,05,3.50
2015,02,15,06,06,3.50
2015,02,15,06,07,3.50
2015,02,15,06,08,3.50
2015,02,15,06,09,3.50
2015,02,15,06,10,3.50
2015,02,15,06,11,3.60
2015,02,15,06,12,3.60
2015,02,15,06,13,3.60
2015,02,15,06,14,3.70
2015,02,15,06,15,3.70
2015,02,15,06,16,3.70
2015,02,15,06,17,3.70
2015,02,15,06,18,3.70
2015,02,15,06,19,3.80
2015,02,15,06,20,3.80
2015,02,15,06,21,3.80
2015,02,15,06,22,3.80
2015,02,15,06,23,3.80
2015,02,15,06,24,3.80
2015,02,15,06,25,3.80
2015,02,15,06,26,3.80
2015,02,15,06,27,3.90
2015,02,15,06,28,4.00
2015,02,15,06,29,4.00
2015,02,15,06,30,4.10
2015,02,15,06,31,4.10
2015,02,15,06,32,4.20
2015,02,15,06,33,4.20
2015,02,15,06,34,4.20
2015,02,15,06,35,4.20
2015,02,15,06,36,4.20
2015,02,15,06,37,4.20
2015,02,15,06,38,4.20
2015,02,15,06,39,4.20
2015,02,15,06,40,4.20
2015,02,15,06,41,4.20
2015,02,15,06,42,4.20
2015,02,15,06,43,4.20
2015,02,15,06,44,4.20
2015,02,15,06,45,4.30
2015,02,15,06,46,4.30
2015,02,15,06,47,4.30
2015,02,15,06,48,4.30
2015,02,15,06,49,4.30
2015,02,15,06,50,4.30
2015,02,15,06,51,4.30
2015,02,15,06,52,4.30
2015,02,15,06,53,4.30
2015,02,15,06,54,4.30
2015,02,15,06,55,4.30
2015,02,15,06,56,4.30
2015,02,15,06,57,4.30
2015,02,15,06,58,4.30
2015,02,15,06,59,4.30
2015,02,15,07,00,4.20
2015,02,15,07,01,4.20
2015,02,15,07,02,4.20
2015,02,15,07,03,4.10
2015,02,15,07,04,4.10
2015,02,15,07,05,4.00
2015,02,15,07,06,4.00
2015,02,15,07,07,3.90
2015,02,15,07,08,3.90
2015,02,15,07,09,3.90
2015,02,15,07,10,3.80
2015,02,15,07,11,3.80
2015,02,15,07,12,3.80
2015,02,15,07,13,3.70
2015,02,15,07,14,3.70
2015,02,15,07,15,3.60
2015,02,15,07,16,3.60
2015,02,15,07,17,3.60
2015,02,15,07,18,3.60
2015,02,15,07,19,3.60
2015,02,15,07,20,3.50
2015,02,15,07,21,3.50
2015,02,15,07,22,3.50
2015,02,15,07,23,3.50
2015,02,15,07,24,3.60
2015,02,15,07,25,3.60
2015,02,15,07,26,3.60
2015,02,15,07,27,3.70
2015,02,15,07,28,3.70
2015,02,15,07,29,3.70
2015,02,15,07,30,3.60
2015,02,15,07,31,3.60
2015,02,15,07,32,3.50
2015,02,15,07,33,3.50
2015,02,15,07,34,3.40
2015,02,15,07,35,3.40
2015,02,15,07,36,3.30
2015,02,15,07,37,3.30
2015,02,15,07,38,3.20
2015,02,15,07,39,3.20
2015,02,15,07,40,3.20
2015,02,15,07,41,3.10
2015,02,15,07,42,3.10
2015,02,15,07,43,3.10
2015,02,15,07,44,3.10
2015,02,15,07,45,3.10
2015,02,15,07,46,3.10
2015,02,15,07,47,3.10
2015,02,15,07,48,3.20
2015,02,15,07,49,3.30
2015,02,15,07,50,3.40
2015,02,15,07,51,3.50
2015,02,15,07,52,3.50
2015,02,15,07,53,3.60
2015,02,15,07,54,3.80
2015,02,15,07,55,3.90
2015,02,15,07,56,4.00
2015,02,15,07,57,4.10
2015,02,15,07,58,4.20
2015,02,15,07,59,4.30
2015,02,15,08,00,4.40
2015,02,15,08,01,4.50
2015,02,15,08,02,4.60
2015,02,15,08,03,4.70
2015,02,15,08,04,4.80
2015,02,15,08,05,4.90
2015,02,15,08,06,4.90
2015,02,15,08,07,5.00
2015,02,15,08,08,5.10
2015,02,15,08,09,5.10
2015,02,15,08,10,5.20
2015,02,15,08,11,5.20
2015,02,15,08,12,5.30
2015,02,15,08,13,5.30
2015,02,15,08,14,5.30
2015,02,15,08,15,5.30
2015,02,15,08,16,5.30
2015,02,15,08,17,5.30
2015,02,15,08,18,5.20
2015,02,15,08,19,5.10
2015,02,15,08,20,5.10
2015,02,15,08,21,5.10
2015,02,15,08,22,5.10
2015,02,15,08,23,5.20
2015,02,15,08,24,5.30
2015,02,15,08,25,5.40
2015,02,15,08,26,5.40
2015,02,15,08,27,5.50
2015,02,15,08,28,5.60
2015,02,15,08,29,5.60
2015,02,15,08,30,5.70
2015,02,15,08,31,5.80
2015,02,15,08,32,5.90
2015,02,15,08,33,5.90
2015,02,15,08,34,6.00
2015,02,15,08,35,6.10
2015,02,15,08,36,6.10
2015,02,15,08,37,6.20
2015,02,15,08,38,6.20
2015,02,15,08,39,6.30
2015,02,15,08,40,6.30
2015,02,15,08,41,6.30
2015,02,15,08,42,6.40
2015,02,15,08,43,6.40
2015,02,15,08,44,6.50
2015,02,15,08,45,6.50
2015,02,15,08,46,6.60
2015,02,15,08,47,6.60
2015,02,15,08,48,6.70
2015,02,15,08,49,6.70
2015,02,15,08,50,6.70
2015,02,15,08,51,6.80
2015,02,15,08,52,6.80
2015,02,15,08,53,6.80
2015,02,15,08,54,6.80
2015,02,15,08,55,6.90
2015,02,15,08,56,6.90
2015,02,15,08,57,6.90
2015,02,15,08,58,7.00
2015,02,15,08,59,7.00
2015,02,15,09,00,7.00
2015,02,15,09,01,7.10
2015,02,15,09,02,7.10
2015,02,15,09,03,7.10
2015,02,15,09,04,7.20
2015,02,15,09,05,7.20
2015,02,15,09,06,7.20
2015,02,15,09,07,7.20
2015,02,15,09,08,7.30
2015,02,15,09,09,7.30
2015,02,15,09,10,7.30
2015,02,15,09,11,7.30
2015,02,15,09,12,7.30
2015,02,15,09,13,7.40
2015,02,15,09,14,7.40
2015,02,15,09,15,7.40
2015,02,15,09,16,7.50
2015,02,15,09,17,7.50
2015,02,15,09,18,7.50
2015,02,15,09,19,7.60
2015,02,15,09,20,7.60
2015,02,15,09,21,7.70
2015,02,15,09,22,7.70
2015,02,15,09,23,7.70
2015,02,15,09,24,7.80
2015,02,15,09,25,7.80
2015,02,15,09,26,7.80
2015,02,15,09,27,7.80
2015,02,15,09,28,7.90
2015,02,15,09,29,7.90
2015,02,15,09,30,7.90
2015,02,15,09,31,7.90
2015,02,15,09,32,7.90
2015,02,15,09,33,7.90
2015,02,15,09,34,7.90
2015,02,15,09,35,7.90
2015,02,15,09,36,7.90
2015,02,15,09,37,8.00
2015,02,15,09,38,8.00
2015,02,15,09,39,8.00
2015,02,15,09,40,8.00
2015,02,15,09,41,8.00
2015,02,15,09,42,8.00
2015,02,15,09,43,8.00
2015,02,15,09,44,8.00
2015,02,15,09,45,8.00
2015,02,15,09,46,8.00
2015,02,15,09,47,8.00
2015,02,15,09,48,8.00
2015,02,15,09,49,8.00
2015,02,15,09,50,8.00
2015,02,15,09,51,8.10
2015,02,15,09,52,8.10
2015,02,15,09,53,8.10
2015,02,15,09,54,8.10
2015,02,15,09,55,8.10
2015,02,15,09,56,8.20
2015,02,15,09,57,8.20
2015,02,15,09,58,8.20
2015,02,15,09,59,8.20
2015,02,15,10,00,8.20
2015,02,15,10,01,8.30
2015,02,15,10,02,8.30
2015,02,15,10,03,8.30
2015,02,15,10,04,8.30
2015,02,15,10,05,8.30
2015,02,15,10,06,8.30
2015,02,15,10,07,8.30
2015,02,15,10,08,8.30
2015,02,15,10,09,8.30
2015,02,15,10,10,8.30
2015,02,15,10,11,8.30
2015,02,15,10,12,8.30
2015,02,15,10,13,8.30
2015,02,15,10,14,8.30
2015,02,15,10,15,8.30
2015,02,15,10,16,8.30
2015,02,15,10,17,8.30
2015,02,15,10,18,8.30
2015,02,15,10,19,8.30
2015,02,15,10,20,8.20
2015,02,15,10,21,8.20
2015,02,15,10,22,8.20
2015,02,15,10,23,8.10
2015,02,15,10,24,8.10
2015,02,15,10,25,8.10
2015,02,15,10,26,8.10
2015,02,15,10,27,8.10
2015,02,15,10,28,8.10
2015,02,15,10,29,8.00
2015,02,15,10,30,8.00
2015,02,15,10,31,8.00
2015,02,15,10,32,8.00
2015,02,15,10,33,8.00
2015,02,15,10,34,8.00
2015,02,15,10,35,8.00
2015,02,15,10,36,8.00
2015,02,15,10,37,8.00
2015,02,15,10,38,8.00
2015,02,15,10,39,7.90
2015,02,15,10,40,7.90
2015,02,15,10,41,7.90
2015,02,15,10,42,7.90
2015,02,15,10,43,7.90
2015,02,15,10,44,7.90
2015,02,15,10,45,7.90
2015,02,15,10,46,7.80
2015,02,15,10,47,7.80
2015,02,15,10,48,7.80
2015,02,15,10,49,7.80
2015,02,15,10,50,7.80
2015,02,15,10,51,7.80
2015,02,15,10,52,7.80
2015,02,15,10,53,7.80
2015,02,15,10,54,7.80
2015,02,15,10,55,7.80
2015,02,15,10,56,7.80
2015,02,15,10,57,7.80
2015,02,15,10,58,7.80
2015,02,15,10,59,7.80
2015,02,15,11,00,7.80
2015,02,15,11,01,7.80
2015,02,15,11,02,7.80
2015,02,15,11,03,7.80
2015,02,15,11,04,7.80
2015,02,15,11,05,7.90
2015,02,15,11,06,7.90
2015,02,15,11,07,7.90
2015,02,15,11,08,7.90
2015,02,15,11,09,7.90
2015,02,15,11,10,7.90
2015,02,15,11,11,7.90
2015,02,15,11,12,7.90
2015,02,15,11,13,8.00
2015,02,15,11,14,8.00
2015,02,15,11,15,8.00
2015,02,15,11,16,8.00
2015,02,15,11,17,8.10
2015,02,15,11,18,8.10
2015,02,15,11,19,8.10
2015,02,15,11,20,8.20
2015,02,15,11,21,8.20
2015,02,15,11,22,8.20
2015,02,15,11,23,8.20
2015,02,15,11,24,8.20
2015,02,15,11,25,8.20
2015,02,15,11,26,8.20
2015,02,15,11,27,8.20
2015,02,15,11,28,8.20
2015,02,15,11,29,8.30
2015,02,15,11,30,8.30
2015,02,15,11,31,8.30
2015,02,15,11,32,8.30
2015,02,15,11,33,8.30
2015,02,15,11,34,8.40
2015,02,15,11,35,8.40
2015,02,15,11,36,8.40
2015,02,15,11,37,8.40
2015,02,15,11,38,8.40
2015,02,15,11,39,8.40
2015,02,15,11,40,8.50
2015,02,15,11,41,8.50
2015,02,15,11,42,8.40
2015,02,15,11,43,8.50
2015,02,15,11,44,8.50
2015,02,15,11,45,8.50
2015,02,15,11,46,8.50
2015,02,15,11,47,8.50
2015,02,15,11,48,8.50
2015,02,15,11,49,8.50
2015,02,15,11,50,8.50
2015,02,15,11,51,8.50
2015,02,15,11,52,8.40
2015,02,15,11,53,8.40
2015,02,15,11,54,8.40
2015,02,15,11,55,8.40
2015,02,15,11,56,8.40
2015,02,15,11,57,8.40
2015,02,15,11,58,8.40
2015,02,15,11,59,8.50
2015,02,15,12,00,8.50
2015,02,15,12,01,8.50
2015,02,15,12,02,8.50
2015,02,15,12,03,8.60
2015,02,15,12,04,8.60
2015,02,15,12,05,8.70
2015,02,15,12,06,8.70
2015,02,15,12,07,8.70
2015,02,15,12,08,8.70
2015,02,15,12,09,8.70
2015,02,15,12,10,8.70
2015,02,15,12,11,8.70
2015,02,15,12,12,8.70
2015,02,15,12,13,8.70
2015,02,15,12,14,8.70
2015,02,15,12,15,8.70
2015,02,15,12,16,8.70
2015,02,15,12,17,8.70
2015,02,15,12,18,8.70
2015,02,15,12,19,8.70
2015,02,15,12,20,8.70
2015,02,15,12,21,8.60
2015,02,15,12,22,8.60
2015,02,15,12,23,8.60
2015,02,15,12,24,8.60
2015,02,15,12,25,8.60
2015,02,15,12,26,8.60
2015,02,15,12,27,8.70
2015,02,15,12,28,8.70
2015,02,15,12,29,8.70
2015,02,15,12,30,8.80
2015,02,15,12,31,8.80
2015,02,15,12,32,8.80
2015,02,15,12,33,8.80
2015,02,15,12,34,8.90
2015,02,15,12,35,8.90
2015,02,15,12,36,8.90
2015,02,15,12,37,8.90
2015,02,15,12,38,9.00
2015,02,15,12,39,9.00
2015,02,15,12,40,9.00
2015,02,15,12,41,9.00
2015,02,15,12,42,9.00
2015,02,15,12,43,9.00
2015,02,15,12,44,9.00
2015,02,15,12,45,9.00
2015,02,15,12,46,9.00
2015,02,15,12,47,9.10
2015,02,15,12,48,9.10
2015,02,15,12,49,9.10
2015,02,15,12,50,9.10
2015,02,15,12,51,9.10
2015,02,15,12,52,9.20
2015,02,15,12,53,9.20
2015,02,15,12,54,9.20
2015,02,15,12,55,9.20
2015,02,15,12,56,9.20
2015,02,15,12,57,9.30
2015,02,15,12,58,9.30
2015,02,15,12,59,9.30
2015,02,15,13,00,9.30
2015,02,15,13,01,9.30
2015,02,15,13,02,9.30
2015,02,15,13,03,9.30
2015,02,15,13,04,9.30
2015,02,15,13,05,9.30
2015,02,15,13,06,9.30
2015,02,15,13,07,9.30
2015,02,15,13,08,9.30
2015,02,15,13,09,9.30
2015,02,15,13,10,9.30
2015,02,15,13,11,9.30
2015,02,15,13,12,9.30
2015,02,15,13,13,9.30
2015,02,15,13,14,9.30
2015,02,15,13,15,9.40
2015,02,15,13,16,9.40
2015,02,15,13,17,9.40
2015,02,15,13,18,9.50
2015,02,15,13,19,9.50
2015,02,15,13,20,9.40
2015,02,15,13,21,9.40
2015,02,15,13,22,9.40
2015,02,15,13,23,9.50
2015,02,15,13,24,9.50
2015,02,15,13,25,9.60
2015,02,15,13,26,9.70
2015,02,15,13,27,9.70
2015,02,15,13,28,9.70
2015,02,15,13,29,9.80
2015,02,15,13,30,9.80
2015,02,15,13,31,9.80
2015,02,15,13,32,9.80
2015,02,15,13,33,9.80
2015,02,15,13,34,9.80
2015,02,15,13,35,9.70
2015,02,15,13,36,9.70
2015,02,15,13,37,9.70
2015,02,15,13,38,9.70
2015,02,15,13,39,9.70
2015,02,15,13,40,9.70
2015,02,15,13,41,9.60
2015,02,15,13,42,9.60
2015,02,15,13,43,9.60
2015,02,15,13,44,9.70
2015,02,15,13,45,9.70
2015,02,15,13,46,9.70
2015,02,15,13,47,9.80
2015,02,15,13,48,9.80
2015,02,15,13,49,9.90
2015,02,15,13,50,9.90
2015,02,15,13,51,10.00
2015,02,15,13,52,10.00
2015,02,15,13,53,10.00
2015,02,15,13,54,10.00
2015,02,15,13,55,10.00
2015,02,15,13,56,9.90
2015,02,15,13,57,9.90
2015,02,15,13,58,10.00
2015,02,15,13,59,10.00
2015,02,15,14,00,10.00
2015,02,15,14,01,10.00
2015,02,15,14,02,10.00
2015,02,15,14,03,10.00
2015,02,15,14,04,10.10
2015,02,15,14,05,10.10
2015,02,15,14,06,10.10
2015,02,15,14,07,10.10
2015,02,15,14,08,10.10
2015,02,15,14,09,10.20
2015,02,15,14,10,10.20
2015,02,15,14,11,10.20
2015,02,15,14,12,10.20
2015,02,15,14,13,10.20
2015,02,15,14,14,10.20
2015,02,15,14,15,10.20
2015,02,15,14,16,10.20
2015,02,15,14,17,10.20
2015,02,15,14,18,10.20
2015,02,15,14,19,10.10
2015,02,15,14,20,10.00
2015,02,15,14,21,10.00
2015,02,15,14,22,10.00
2015,02,15,14,23,9.90
2015,02,15,14,24,9.90
2015,02,15,14,25,9.90
2015,02,15,14,26,9.90
2015,02,15,14,27,9.90
2015,02,15,14,28,9.90
2015,02,15,14,29,9.90
2015,02,15,14,30,10.00
2015,02,15,14,31,10.00
2015,02,15,14,32,10.00
2015,02,15,14,33,10.00
2015,02,15,14,34,10.10
2015,02,15,14,35,10.10
2015,02,15,14,36,10.10
2015,02,15,14,37,10.10
2015,02,15,14,38,10.10
2015,02,15,14,39,10.10
2015,02,15,14,40,10.10
2015,02,15,14,41,10.20
2015,02,15,14,42,10.20
2015,02,15,14,43,10.30
2015,02,15,14,44,10.30
2015,02,15,14,45,10.30
2015,02,15,14,46,10.30
2015,02,15,14,47,10.30
2015,02,15,14,48,10.40
2015,02,15,14,49,10.40
2015,02,15,14,50,10.40
2015,02,15,14,51,10.50
2015,02,15,14,52,10.50
2015,02,15,14,53,10.50
2015,02,15,14,54,10.40
2015,02,15,14,55,10.40
2015,02,15,14,56,10.40
2015,02,15,14,57,10.30
2015,02,15,14,58,10.30
2015,02,15,14,59,10.30
2015,02,15,15,00,10.30
2015,02,15,15,01,10.30
2015,02,15,15,02,10.40
2015,02,15,15,03,10.40
2015,02,15,15,04,10.40
2015,02,15,15,05,10.40
2015,02,15,15,06,10.50
2015,02,15,15,07,10.50
2015,02,15,15,08,10.50
2015,02,15,15,09,10.60
2015,02,15,15,10,10.60
2015,02,15,15,11,10.70
2015,02,15,15,12,10.70
2015,02,15,15,13,10.80
2015,02,15,15,14,10.80
2015,02,15,15,15,10.90
2015,02,15,15,16,10.90
2015,02,15,15,17,10.90
2015,02,15,15,18,10.80
2015,02,15,15,19,10.80
2015,02,15,15,20,10.80
2015,02,15,15,21,10.80
2015,02,15,15,22,10.80
2015,02,15,15,23,10.80
2015,02,15,15,24,10.80
2015,02,15,15,25,10.80
2015,02,15,15,26,10.80
2015,02,15,15,27,10.80
2015,02,15,15,28,10.70
2015,02,15,15,29,10.70
2015,02,15,15,30,10.70
2015,02,15,15,31,10.60
2015,02,15,15,32,10.60
2015,02,15,15,33,10.60
2015,02,15,15,34,10.50
2015,02,15,15,35,10.50
2015,02,15,15,36,10.40
2015,02,15,15,37,10.40
2015,02,15,15,38,10.40
2015,02,15,15,39,10.40
2015,02,15,15,40,10.40
2015,02,15,15,41,10.40
2015,02,15,15,42,10.40
2015,02,15,15,43,10.50
2015,02,15,15,44,10.50
2015,02,15,15,45,10.60
2015,02,15,15,46,10.60
2015,02,15,15,47,10.60
2015,02,15,15,48,10.60
2015,02,15,15,49,10.60
2015,02,15,15,50,10.60
2015,02,15,15,51,10.60
2015,02,15,15,52,10.70
2015,02,15,15,53,10.70
2015,02,15,15,54,10.80
2015,02,15,15,55,10.80
2015,02,15,15,56,10.80
2015,02,15,15,57,10.80
2015,02,15,15,58,10.80
2015,02,15,15,59,10.80
2015,02,15,16,00,10.80
2015,02,15,16,01,10.80
2015,02,15,16,02,10.80
2015,02,15,16,03,10.80
2015,02,15,16,04,10.90
2015,02,15,16,05,10.90
2015,02,15,16,06,10.90
2015,02,15,16,07,10.80
2015,02,15,16,08,10.80
2015,02,15,16,09,10.80
2015,02,15,16,10,10.70
2015,02,15,16,11,10.70
2015,02,15,16,12,10.70
2015,02,15,16,13,10.70
2015,02,15,16,14,10.70
2015,02,15,16,15,10.70
2015,02,15,16,16,10.70
2015,02,15,16,17,10.80
2015,02,15,16,18,10.80
2015,02,15,16,19,10.80
2015,02,15,16,20,10.80
2015,02,15,16,21,10.80
2015,02,15,16,22,10.80
2015,02,15,16,23,10.80
2015,02,15,16,24,10.80
2015,02,15,16,25,10.80
2015,02,15,16,26,10.80
2015,02,15,16,27,10.80
2015,02,15,16,28,10.80
2015,02,15,16,29,10.80
2015,02,15,16,30,10.80
2015,02,15,16,31,10.80
2015,02,15,16,32,10.80
2015,02,15,16,33,10.70
2015,02,15,16,34,10.70
2015,02,15,16,35,10.70
2015,02,15,16,36,10.70
2015,02,15,16,37,10.60
2015,02,15,16,38,10.60
2015,02,15,16,39,10.60
2015,02,15,16,40,10.60
2015,02,15,16,41,10.60
2015,02,15,16,42,10.60
2015,02,15,16,43,10.50
2015,02,15,16,44,10.50
2015,02,15,16,45,10.50
2015,02,15,16,46,10.50
2015,02,15,16,47,10.40
2015,02,15,16,48,10.40
2015,02,15,16,49,10.40
2015,02,15,16,50,10.40
2015,02,15,16,51,10.40
2015,02,15,16,52,10.30
2015,02,15,16,53,10.30
2015,02,15,16,54,10.30
2015,02,15,16,55,10.30
2015,02,15,16,56,10.30
2015,02,15,16,57,10.30
2015,02,15,16,58,10.30
2015,02,15,16,59,10.30
2015,02,15,17,00,10.20
2015,02,15,17,01,10.20
2015,02,15,17,02,10.20
2015,02,15,17,03,10.10
2015,02,15,17,04,10.10
2015,02,15,17,05,10.00
2015,02,15,17,06,10.00
2015,02,15,17,07,9.90
2015,02,15,17,08,9.90
2015,02,15,17,09,9.90
2015,02,15,17,10,9.80
2015,02,15,17,11,9.80
2015,02,15,17,12,9.80
2015,02,15,17,13,9.70
2015,02,15,17,14,9.70
2015,02,15,17,15,9.70
2015,02,15,17,16,9.60
2015,02,15,17,17,9.60
2015,02,15,17,18,9.60
2015,02,15,17,19,9.60
2015,02,15,17,20,9.50
2015,02,15,17,21,9.50
2015,02,15,17,22,9.50
2015,02,15,17,23,9.50
2015,02,15,17,24,9.40
2015,02,15,17,25,9.40
2015,02,15,17,26,9.40
2015,02,15,17,27,9.40
2015,02,15,17,28,9.30
2015,02,15,17,29,9.30
2015,02,15,17,30,9.30
2015,02,15,17,31,9.30
2015,02,15,17,32,9.20
2015,02,15,17,33,9.20
2015,02,15,17,34,9.20
2015,02,15,17,35,9.20
2015,02,15,17,36,9.10
2015,02,15,17,37,9.10
2015,02,15,17,38,9.10
2015,02,15,17,39,9.10
2015,02,15,17,40,9.10
2015,02,15,17,41,9.00
2015,02,15,17,42,9.00
2015,02,15,17,43,9.00
2015,02,15,17,44,9.00
2015,02,15,17,45,8.90
2015,02,15,17,46,8.90
2015,02,15,17,47,8.90
2015,02,15,17,48,8.90
2015,02,15,17,49,8.90
2015,02,15,17,50,8.90
2015,02,15,17,51,8.80
2015,02,15,17,52,8.80
2015,02,15,17,53,8.80
2015,02,15,17,54,8.80
2015,02,15,17,55,8.80
2015,02,15,17,56,8.80
2015,02,15,17,57,8.80
2015,02,15,17,58,8.80